| time (UTC) | temp F | wind direction | speed MPH | gust MPH | rain 1hr in | rain 24hr in | rain mn in | humidity % | barometer mb |
| 20260509233031 | 78 | 9 | 4.0 | 11.0 | 0.00 | 0.00 | 0.00 | 32 | 1019.3 |
| 20260509231531 | 78 | 29 | 4.0 | 10.0 | 0.00 | 0.00 | 0.00 | 32 | 1019.5 |
| 20260509230026 | 78 | 4 | 4.0 | 10.0 | 0.00 | 0.00 | 0.00 | 32 | 1019.8 |
| 20260509223029 | 79 | 13 | 4.0 | 11.0 | 0.00 | 0.00 | 0.00 | 32 | 1020.2 |
| 20260509221532 | 79 | 317 | 3.0 | 9.0 | 0.00 | 0.00 | 0.00 | 32 | 1020.4 |
| 20260509220104 | 78 | 38 | 3.0 | 7.0 | 0.00 | 0.00 | 0.00 | 33 | 1020.6 |
| 20260509214602 | 79 | 9 | 4.0 | 13.0 | 0.00 | 0.00 | 0.00 | 34 | 1020.8 |
| 20260509211559 | 79 | 48 | 3.0 | 8.0 | 0.00 | 0.00 | 0.00 | 36 | 1021.3 |
| 20260509210030 | 77 | 12 | 4.0 | 13.0 | 0.00 | 0.00 | 0.00 | 37 | 1021.4 |
| 20260509204531 | 77 | 13 | 4.0 | 11.0 | 0.00 | 0.00 | 0.00 | 37 | 1021.6 |
| 20260509203030 | 77 | 26 | 2.0 | 9.0 | 0.00 | 0.00 | 0.00 | 38 | 1021.7 |
| 20260509201605 | 77 | 53 | 4.0 | 11.0 | 0.00 | 0.00 | 0.00 | 40 | 1022.0 |
| 20260509200030 | 75 | 23 | 3.0 | 7.0 | 0.00 | 0.00 | 0.00 | 41 | 1022.3 |
| 20260509194528 | 74 | 64 | 3.0 | 10.0 | 0.00 | 0.00 | 0.00 | 43 | 1022.4 |
| 20260509193030 | 73 | 341 | 3.0 | 12.0 | 0.00 | 0.00 | 0.00 | 45 | 1022.7 |
| 20260509191607 | 73 | 15 | 4.0 | 9.0 | 0.00 | 0.00 | 0.00 | 45 | 1022.8 |
| 20260509190030 | 71 | 12 | 3.0 | 9.0 | 0.00 | 0.00 | 0.00 | 47 | 1023.0 |
| 20260509184532 | 69 | 360 | 2.0 | 8.0 | 0.00 | 0.00 | 0.00 | 51 | 1023.2 |
| 20260509183028 | 67 | 360 | 4.0 | 10.0 | 0.00 | 0.00 | 0.00 | 53 | 1023.3 |
| 20260509181532 | 66 | 352 | 3.0 | 7.0 | 0.00 | 0.00 | 0.00 | 54 | 1023.4 |
| 20260509180028 | 64 | 5 | 4.0 | 10.0 | 0.00 | 0.00 | 0.00 | 55 | 1023.4 |
| 20260509174530 | 64 | 351 | 3.0 | 8.0 | 0.00 | 0.00 | 0.00 | 57 | 1023.5 |
| 20260509171530 | 62 | 24 | 3.0 | 8.0 | 0.00 | 0.00 | 0.00 | 60 | 1023.7 |
| 20260509170035 | 61 | 25 | 2.0 | 7.0 | 0.00 | 0.00 | 0.00 | 62 | 1023.8 |
| 20260509164531 | 60 | 11 | 2.0 | 10.0 | 0.00 | 0.00 | 0.00 | 64 | 1024.0 |
| 20260509161547 | 58 | 346 | 2.0 | 8.0 | 0.00 | 0.00 | 0.00 | 70 | 1024.3 |
| 20260509154645 | 54 | 39 | 2.0 | 8.0 | 0.00 | 0.00 | 0.00 | 81 | 1024.2 |
| 20260509153033 | 51 | 65 | 1.0 | 4.0 | 0.00 | 0.00 | 0.00 | 85 | 1024.2 |
| 20260509151538 | 48 | 244 | 0.0 | 0.0 | 0.00 | 0.00 | 0.00 | 88 | 1024.2 |
| 20260509150036 | 46 | 247 | 0.0 | 2.0 | 0.00 | 0.00 | 0.00 | 89 | 1024.2 |
| 20260509144537 | 45 | 247 | 0.0 | 2.0 | 0.00 | 0.00 | 0.00 | 90 | 1024.2 |
| 20260509141532 | 41 | 203 | 0.0 | 3.0 | 0.00 | 0.00 | 0.00 | 91 | 1024.0 |
| 20260509140039 | 39 | 201 | 2.0 | 5.0 | 0.00 | 0.00 | 0.00 | 91 | 1023.9 |
| 20260509133036 | 37 | 202 | 0.0 | 2.0 | 0.00 | 0.00 | 0.00 | 90 | 1023.5 |
| 20260509130055 | 38 | 208 | 1.0 | 4.0 | 0.00 | 0.00 | 0.00 | 89 | 1023.0 |
| 20260509123031 | 38 | 207 | 0.0 | 3.0 | 0.00 | 0.00 | 0.00 | 89 | 1023.1 |
| 20260509121545 | 39 | 198 | 1.0 | 6.0 | 0.00 | 0.00 | 0.00 | 89 | 1023.2 |
| 20260509120040 | 38 | 186 | 2.0 | 5.0 | 0.00 | 0.00 | 0.00 | 87 | 1023.2 |
| 20260509114741 | 39 | 209 | 0.0 | 3.0 | 0.00 | 0.00 | 0.00 | 87 | 1023.2 |
| 20260509111538 | 41 | 206 | 2.0 | 4.0 | 0.00 | 0.00 | 0.00 | 86 | 1023.3 |
| 20260509110047 | 42 | 226 | 2.0 | 5.0 | 0.00 | 0.00 | 0.00 | 84 | 1023.2 |
| 20260509103116 | 43 | 227 | 2.0 | 5.0 | 0.00 | 0.00 | 0.00 | 84 | 1023.2 |
| 20260509101652 | 43 | 202 | 3.0 | 5.0 | 0.00 | 0.00 | 0.00 | 84 | 1023.4 |
| 20260509100050 | 43 | 160 | 2.0 | 6.0 | 0.00 | 0.00 | 0.00 | 83 | 1023.4 |
| 20260509094550 | 43 | 238 | 1.0 | 4.0 | 0.00 | 0.00 | 0.00 | 83 | 1023.3 |
| 20260509093106 | 44 | 282 | 3.0 | 6.0 | 0.00 | 0.00 | 0.00 | 82 | 1023.3 |
| 20260509091554 | 45 | 246 | 1.0 | 3.0 | 0.00 | 0.00 | 0.00 | 81 | 1023.6 |
| 20260509090036 | 45 | 257 | 0.0 | 3.0 | 0.00 | 0.00 | 0.00 | 80 | 1023.7 |
| 20260509084536 | 45 | 216 | 1.0 | 4.0 | 0.00 | 0.00 | 0.00 | 79 | 1023.9 |
| 20260509083202 | 46 | 292 | 1.0 | 3.0 | 0.00 | 0.00 | 0.00 | 76 | 1024.0 |
| 20260509081536 | 47 | 271 | 2.0 | 4.0 | 0.00 | 0.00 | 0.00 | 74 | 1024.1 |
| 20260509080042 | 49 | 235 | 2.0 | 7.0 | 0.00 | 0.00 | 0.00 | 72 | 1024.2 |
| 20260509074533 | 51 | 117 | 1.0 | 4.0 | 0.00 | 0.00 | 0.00 | 69 | 1024.3 |
| 20260509073039 | 52 | 294 | 2.0 | 5.0 | 0.00 | 0.00 | 0.00 | 69 | 1024.2 |
| 20260509070035 | 52 | 249 | 4.0 | 10.0 | 0.00 | 0.00 | 0.00 | 69 | 1024.0 |
| 20260509064536 | 52 | 246 | 3.0 | 8.0 | 0.00 | 0.00 | 0.00 | 68 | 1024.0 |
| 20260509063052 | 53 | 254 | 1.0 | 6.0 | 0.00 | 0.00 | 0.00 | 65 | 1024.0 |
| 20260509061539 | 55 | 50 | 1.0 | 5.0 | 0.00 | 0.00 | 0.00 | 62 | 1024.0 |
| 20260509054530 | 56 | 240 | 9.0 | 17.0 | 0.00 | 0.00 | 0.00 | 62 | 1023.4 |
| 20260509053049 | 56 | 246 | 10.0 | 19.0 | 0.00 | 0.00 | 0.00 | 62 | 1023.4 |
| 20260509051529 | 56 | 247 | 9.0 | 16.0 | 0.00 | 0.00 | 0.00 | 61 | 1023.6 |
| 20260509044531 | 56 | 256 | 7.0 | 14.0 | 0.00 | 0.00 | 0.00 | 59 | 1023.6 |
| 20260509043056 | 56 | 272 | 6.0 | 14.0 | 0.00 | 0.00 | 0.00 | 58 | 1023.5 |
| 20260509041539 | 57 | 277 | 4.0 | 12.0 | 0.00 | 0.00 | 0.00 | 56 | 1023.5 |
| 20260509040038 | 58 | 269 | 7.0 | 14.0 | 0.00 | 0.00 | 0.00 | 55 | 1023.3 |
| 20260509034541 | 58 | 258 | 8.0 | 16.0 | 0.00 | 0.00 | 0.00 | 54 | 1023.0 |
| 20260509033039 | 59 | 271 | 8.0 | 17.0 | 0.00 | 0.00 | 0.00 | 52 | 1022.7 |
| 20260509031614 | 60 | 285 | 7.0 | 16.0 | 0.00 | 0.00 | 0.00 | 50 | 1022.5 |
| 20260509030111 | 61 | 286 | 7.0 | 15.0 | 0.00 | 0.00 | 0.00 | 48 | 1022.3 |
| 20260509024535 | 62 | 283 | 9.0 | 18.0 | 0.00 | 0.00 | 0.00 | 46 | 1022.1 |
| 20260509023100 | 63 | 288 | 11.0 | 20.0 | 0.00 | 0.00 | 0.00 | 44 | 1021.9 |
| 20260509020036 | 64 | 277 | 11.0 | 24.0 | 0.00 | 0.00 | 0.00 | 41 | 1021.4 |
| 20260509014627 | 65 | 267 | 13.0 | 24.0 | 0.00 | 0.00 | 0.00 | 39 | 1021.3 |
| 20260509013107 | 66 | 266 | 12.0 | 25.0 | 0.00 | 0.00 | 0.00 | 38 | 1021.1 |
| 20260509011530 | 67 | 274 | 11.0 | 22.0 | 0.00 | 0.00 | 0.00 | 38 | 1021.1 |
| 20260509010030 | 68 | 292 | 9.0 | 19.0 | 0.00 | 0.00 | 0.00 | 38 | 1021.1 |
| 20260509004528 | 68 | 320 | 6.0 | 16.0 | 0.00 | 0.00 | 0.00 | 38 | 1021.1 |
| 20260509003110 | 68 | 319 | 6.0 | 14.0 | 0.00 | 0.00 | 0.00 | 37 | 1021.1 |
| 20260509001531 | 68 | 311 | 5.0 | 12.0 | 0.00 | 0.00 | 0.00 | 37 | 1021.0 |
| 20260509000108 | 68 | 320 | 6.0 | 15.0 | 0.00 | 0.00 | 0.00 | 37 | 1021.0 |
| 20260508234530 | 68 | 303 | 7.0 | 17.0 | 0.00 | 0.00 | 0.00 | 38 | 1021.0 |